[[{"header":{"parameterUnit":"m.s-1","parameterCategory":2,"la1":30.2992,"la2":30.254,"lo1":-89.0895,"lo2":-89.0443,"dy":0.0025,"dx":0.0025,"nx":19,"ny":19,"refTime":"2026-03-29T21:00:00:Z","depth":"0","parameterNumber":2,"parameterNumberName":"U-component_of_CURRENTS"},"data":[0,0,0,0.2611,0.2611,0.2608,0.2607,0.2606,0.2606,0,0,0,0,0,0,0,0,0,0,0,0.261,0.261,0.2611,0.2611,0.2608,0.2607,0.2606,0.2606,0,0,0,0,0,0,0,0,0,0,0,0.261,0.261,0.2611,0.2612,0.2608,0.2607,0.2606,0.2605,0,0,0,0,0,0,0,0,0,0,0.2606,0.2607,0.261,0.2611,0.2612,0.2608,0.2607,0.2604,0.2605,0.2613,0,0.2622,0,0.2622,0.2608,0.2608,0,0,0,0.2597,0.2607,0.2613,0.2611,0.2612,0.2608,0.2605,0.2604,0.2605,0.2614,0.2622,0.2622,0.2622,0.2608,0.2608,0.267,0.267,0,0,0.2597,0.2601,0.2612,0.2613,0.2623,0.2606,0.2605,0.2604,0.2607,0.2622,0.2622,0.2622,0.2608,0.2608,0.2669,0.267,0,0,0,0.2608,0.2601,0.2606,0.2613,0.2617,0.2606,0.2606,0.2606,0.261,0.2622,0.2622,0.2608,0.2608,0.2669,0.2669,0.2717,0,0,0,0.2607,0.2608,0.2606,0.2607,0.2617,0.2611,0.2607,0.261,0.261,0.2622,0.2608,0.2608,0.2668,0.2669,0.2714,0.2735,0,0,0,0.2608,0.2608,0.2613,0.2607,0.2613,0.2611,0.2614,0.2609,0.2611,0.2608,0.2608,0.2668,0.2669,0.2712,0.2731,0.2827,0,0,0,0.2604,0.2607,0.2613,0.2618,0.2613,0.2624,0.2613,0.2615,0.2614,0.2608,0.2668,0.2669,0.2711,0.2729,0.2824,0.2817,0.2832,0,0,0.2602,0.2607,0.2609,0.2615,0.2619,0.2623,0.2649,0.2642,0.2639,0.2665,0.2666,0.2715,0.2731,0.2826,0.2889,0.2903,0,0,0,0.2605,0.26,0.2605,0.2609,0.2627,0.2654,0.2655,0.2676,0.2706,0.2647,0.2728,0.2736,0.2795,0.2784,0.2795,0.2802,0.2675,0.2675,0.2675,0.2574,0.2587,0.2585,0.2604,0.263,0.2676,0.2718,0.2751,0.2736,0.2769,0.2784,0.29,0.2886,0.2895,0.2902,0.2795,0.2795,0.2795,0.2795,0.2538,0.252,0.2568,0.2569,0.2628,0.2664,0.2773,0.2798,0.2902,0.2848,0.2904,0.2844,0.291,0.2913,0.2798,0.2798,0.2797,0.2797,0.2797,0.2476,0.247,0.2489,0.2513,0.257,0.2654,0.2763,0.2859,0.2942,0.3003,0.3022,0.302,0.3019,0.3043,0.3043,0.3044,0.3044,0.3044,0.3045,0.2393,0.2416,0.2406,0.2449,0.2478,0.2575,0.2759,0.2873,0.3037,0.3084,0.3085,0.3061,0.2976,0.2961,0.3053,0.3051,0.305,0.305,0.3049,0.2283,0.2311,0.2295,0.2312,0.2384,0.2437,0.2657,0.2908,0.3068,0.3154,0.3197,0.3145,0.314,0.313,0.3119,0.3247,0.3247,0.3247,0.3247,0.2208,0.2219,0.2197,0.2206,0.2258,0.2369,0.2498,0.2743,0.3072,0.3194,0.3283,0.3207,0.3198,0.3192,0.318,0.3169,0.3306,0.3307,0.3307,0.2137,0.2152,0.2105,0.2126,0.218,0.2275,0.2335,0.2521,0.3014,0.331,0.3303,0.33,0.3184,0.3171,0.3151,0.3134,0.311,0,0]},{"header":{"parameterUnit":"m.s-1","parameterCategory":2,"la1":30.2992,"la2":30.254,"lo1":-89.0895,"lo2":-89.0443,"dy":0.0025,"dx":0.0025,"nx":19,"ny":19,"refTime":"2026-03-29T21:00:00:Z","depth":"0","parameterNumber":3,"parameterNumberName":"V-component_of_CURRENTS"},"data":[0,0,0,0.0009,0.0008,-0.0039,-0.004,-0.013,-0.013,0,0,0,0,0,0,0,0,0,0,0,0.0024,0.0024,0.0009,0.0008,-0.0039,-0.004,-0.0129,-0.013,0,0,0,0,0,0,0,0,0,0,0,0.0024,0.0024,0.0024,0.0008,-0.0039,-0.004,-0.0129,-0.009,0,0,0,0,0,0,0,0,0,0,-0.0041,-0.0017,0.0024,0.0024,0.0008,-0.0039,-0.004,-0.0088,-0.0092,-0.0112,0,-0.0111,0,-0.0117,-0.0136,-0.0136,0,0,0,-0.0006,-0.0013,-0.0024,0.0024,0.0007,-0.0039,-0.0022,-0.009,-0.0095,-0.0118,-0.0112,-0.0115,-0.0118,-0.0136,-0.0137,-0.0161,-0.016,0,0,-0.0003,0.001,-0.002,-0.0027,0.0006,-0.002,-0.0023,-0.0093,-0.0095,-0.0112,-0.0117,-0.012,-0.0137,-0.0137,-0.0161,-0.0161,0,0,0,0.0014,0.0012,0.0002,-0.0023,-0.0026,-0.0021,-0.0025,-0.0092,-0.0095,-0.0118,-0.0121,-0.0137,-0.0138,-0.0161,-0.0161,-0.0069,0,0,0,0.0015,0.0022,0.0004,0.001,-0.0024,-0.0055,-0.0022,-0.009,-0.0098,-0.012,-0.0137,-0.0139,-0.0162,-0.0161,-0.0073,-0.0009,0,0,0,0.0024,0.0023,0.0021,0.0011,-0.0003,-0.0054,-0.0061,-0.0092,-0.0099,-0.0136,-0.0139,-0.0162,-0.0161,-0.0076,-0.0015,0.0038,0,0,0,0.0032,0.0056,0.0022,0.0045,-0.0003,-0.0003,-0.0061,-0.0076,-0.0101,-0.0138,-0.0162,-0.0161,-0.0076,-0.0019,0.0034,0.0146,0.0173,0,0,0.0072,0.0061,0.0075,0.0044,0.0071,0.0002,0.002,-0.0042,-0.0098,-0.0144,-0.0145,-0.0072,-0.0015,0.0037,0.0193,0.0219,0,0,0,0.0095,0.0109,0.0109,0.0114,0.0093,0.0089,0.0021,-0.0011,-0.0052,-0.0107,-0.0081,-0.0048,-0.0017,0.0041,0.0062,-0.004,-0.0157,-0.0157,-0.0157,0.0168,0.0159,0.0196,0.0187,0.0183,0.0141,0.0129,0.0072,0.0001,-0.0003,0.0019,0.0115,0.0178,0.0194,0.0088,-0.0003,-0.0003,-0.0002,-0.0002,0.0246,0.0275,0.0266,0.0295,0.028,0.0281,0.0229,0.0183,0.0169,0.0093,0.0117,0.0126,0.0223,0.0101,0.0004,0.0003,0.0002,0.0001,0.0001,0.0303,0.032,0.0329,0.0372,0.0402,0.037,0.0431,0.0358,0.0269,0.0295,0.0339,0.0338,0.0238,0.03,0.03,0.0301,0.0301,0.0302,0.0302,0.0357,0.0372,0.0419,0.0453,0.0494,0.0547,0.0543,0.0557,0.053,0.0468,0.0468,0.027,0.0207,0.0203,0.031,0.0309,0.0308,0.0307,0.0306,0.0431,0.0428,0.0507,0.0553,0.0657,0.0788,0.0777,0.0844,0.0812,0.0831,0.0537,0.0549,0.0534,0.0517,0.052,0.0703,0.0703,0.0703,0.0703,0.0478,0.0482,0.0589,0.0684,0.081,0.0901,0.1101,0.1125,0.0922,0.0783,0.064,0.0572,0.0561,0.054,0.0523,0.0522,0.0701,0.07,0.07,0.0529,0.0555,0.0643,0.0726,0.0873,0.1048,0.1258,0.1374,0.1023,0.0681,0.0477,0.0477,0.0351,0.0341,0.028,0.0264,0.0252,0,0]}],[{"header":{"parameterUnit":"m.s-1","parameterCategory":2,"la1":30.2992,"la2":30.254,"lo1":-89.0895,"lo2":-89.0443,"dy":0.0025,"dx":0.0025,"nx":19,"ny":19,"refTime":"2026-03-29T21:00:00:Z","depth":"2","parameterNumber":2,"parameterNumberName":"U-component_of_CURRENTS"},"data":[0,0,0,0.253,0.2531,0.2571,0.2571,0.2591,0.2592,0,0,0,0,0,0,0,0,0,0,0,0.2515,0.2515,0.253,0.2531,0.2571,0.2571,0.2591,0.2592,0,0,0,0,0,0,0,0,0,0,0,0.2514,0.2515,0.2516,0.2531,0.2571,0.2571,0.2591,0.2565,0,0,0,0,0,0,0,0,0,0,0.2529,0.2522,0.2515,0.2516,0.2532,0.2571,0.2571,0.2564,0.2567,0.2569,0,0.2588,0,0.2597,0.2594,0.2594,0,0,0,0.2517,0.252,0.2537,0.2516,0.2532,0.2571,0.2549,0.2566,0.2569,0.2572,0.2588,0.2589,0.2598,0.2594,0.2594,0.2661,0.2661,0,0,0.2514,0.2513,0.2535,0.2539,0.2559,0.2548,0.2551,0.2568,0.2574,0.2588,0.259,0.2598,0.2594,0.2594,0.266,0.2661,0,0,0,0.2518,0.2511,0.2528,0.2538,0.2552,0.255,0.2552,0.2573,0.2581,0.259,0.2598,0.2594,0.2595,0.266,0.2661,0.2706,0,0,0,0.2516,0.2515,0.2527,0.2525,0.2552,0.2567,0.2557,0.2579,0.2582,0.2598,0.2594,0.2595,0.2659,0.266,0.2703,0.2722,0,0,0,0.251,0.2514,0.2524,0.2525,0.255,0.2567,0.2575,0.258,0.2587,0.2594,0.2595,0.2659,0.266,0.2701,0.2718,0.2813,0,0,0,0.2497,0.2513,0.2525,0.2546,0.255,0.258,0.2575,0.2593,0.2601,0.2594,0.2659,0.2661,0.27,0.2716,0.281,0.2759,0.2771,0,0,0.2505,0.2514,0.2526,0.2538,0.2561,0.2573,0.2613,0.262,0.2621,0.2647,0.2649,0.2704,0.2718,0.2812,0.283,0.2839,0,0,0,0.252,0.2524,0.2536,0.2555,0.2583,0.2618,0.2632,0.2655,0.2692,0.2636,0.2716,0.2724,0.2782,0.2745,0.2753,0.2666,0.2666,0.2666,0.2666,0.25,0.2519,0.2533,0.2562,0.2596,0.265,0.2693,0.2729,0.272,0.2754,0.277,0.2882,0.2841,0.2847,0.2781,0.2781,0.2781,0.2781,0.2781,0.2482,0.2476,0.2525,0.2543,0.2602,0.2646,0.2749,0.2776,0.2878,0.2829,0.2885,0.2804,0.2858,0.2785,0.2784,0.2784,0.2783,0.2783,0.2783,0.2433,0.2432,0.2459,0.2495,0.2558,0.2642,0.2744,0.2837,0.2917,0.2975,0.2972,0.2969,0.2926,0.302,0.3021,0.3021,0.3022,0.3022,0.3022,0.2358,0.2388,0.2388,0.2441,0.2474,0.2569,0.2745,0.2845,0.2986,0.3026,0.3026,0.2964,0.2956,0.2942,0.303,0.3029,0.3028,0.3027,0.3026,0.2269,0.2293,0.2289,0.2311,0.2387,0.2429,0.2637,0.2845,0.2994,0.3057,0.3071,0.3067,0.3059,0.305,0.3038,0.3147,0.3147,0.3147,0.3147,0.22,0.2214,0.22,0.2213,0.2262,0.236,0.2439,0.2601,0.2848,0.2921,0.293,0.2826,0.2827,0.2799,0.2796,0.2776,0.2817,0.2816,0.2815,0.2139,0.2154,0.2114,0.2137,0.2186,0.2258,0.2251,0.2258,0.2499,0.2795,0.28,0.3139,0.3006,0.3,0.297,0.2961,0.2935,0,0]},{"header":{"parameterUnit":"m.s-1","parameterCategory":2,"la1":30.2992,"la2":30.254,"lo1":-89.0895,"lo2":-89.0443,"dy":0.0025,"dx":0.0025,"nx":19,"ny":19,"refTime":"2026-03-29T21:00:00:Z","depth":"2","parameterNumber":3,"parameterNumberName":"V-component_of_CURRENTS"},"data":[0,0,0,0.0022,0.0022,-0.0032,-0.0032,-0.0118,-0.0119,0,0,0,0,0,0,0,0,0,0,0,0.0041,0.0041,0.0022,0.0021,-0.0032,-0.0033,-0.0118,-0.0119,0,0,0,0,0,0,0,0,0,0,0,0.0041,0.0041,0.0041,0.0021,-0.0032,-0.0033,-0.0118,-0.0076,0,0,0,0,0,0,0,0,0,0,-0.0023,0.0,0.0041,0.0041,0.0021,-0.0032,-0.0033,-0.0074,-0.0079,-0.0095,0,-0.0096,0,-0.0105,-0.0124,-0.0124,0,0,0,0.0009,0.0004,-0.0008,0.004,0.0021,-0.0032,-0.0011,-0.0077,-0.0082,-0.0102,-0.0097,-0.01,-0.0106,-0.0125,-0.0125,-0.0145,-0.0145,0,0,0.0012,0.0025,-0.0004,-0.001,0.0017,-0.001,-0.0013,-0.008,-0.0083,-0.0097,-0.0102,-0.0108,-0.0125,-0.0126,-0.0145,-0.0145,0,0,0,0.0029,0.0027,0.0017,-0.0007,-0.0013,-0.0011,-0.0015,-0.0081,-0.0083,-0.0103,-0.0109,-0.0126,-0.0127,-0.0146,-0.0145,-0.006,0,0,0,0.003,0.0037,0.0018,0.0024,-0.0011,-0.0045,-0.0014,-0.0078,-0.0086,-0.0108,-0.0126,-0.0127,-0.0146,-0.0145,-0.0064,-0.0004,0,0,0,0.0041,0.0038,0.0036,0.0025,0.0007,-0.0044,-0.0051,-0.008,-0.0089,-0.0125,-0.0127,-0.0146,-0.0145,-0.0066,-0.0009,0.004,0,0,0,0.005,0.0069,0.0036,0.0053,0.0008,0.0005,-0.005,-0.0068,-0.0093,-0.0126,-0.0146,-0.0145,-0.0067,-0.0013,0.0036,0.0122,0.0146,0,0,0.0084,0.0073,0.0084,0.0054,0.0076,0.001,0.0025,-0.0035,-0.0087,-0.0128,-0.0129,-0.0063,-0.001,0.0039,0.017,0.0193,0,0,0,0.0102,0.0114,0.0113,0.0114,0.0093,0.0089,0.0024,-0.0005,-0.0044,-0.0096,-0.0069,-0.0039,-0.001,0.0033,0.0051,-0.0141,-0.0141,-0.0141,-0.0141,0.0166,0.0158,0.0189,0.0181,0.0176,0.0136,0.0125,0.0074,0.0007,0.0004,0.0024,0.0115,0.0161,0.0176,0.0004,0.0004,0.0005,0.0005,0.0005,0.0235,0.0261,0.0253,0.0278,0.0266,0.0267,0.022,0.0177,0.0166,0.0095,0.0117,0.0113,0.0201,0.0012,0.0011,0.001,0.0009,0.0008,0.0008,0.0286,0.0302,0.0309,0.035,0.0379,0.035,0.041,0.0343,0.0259,0.0283,0.0311,0.031,0.018,0.0287,0.0287,0.0288,0.0288,0.0289,0.0289,0.0335,0.0349,0.0393,0.0425,0.0465,0.0517,0.0516,0.0527,0.0492,0.043,0.043,0.021,0.02,0.0196,0.0297,0.0295,0.0294,0.0294,0.0293,0.0401,0.04,0.0475,0.052,0.0621,0.0742,0.0732,0.0781,0.0749,0.0756,0.0505,0.0498,0.0482,0.0467,0.0469,0.0634,0.0634,0.0634,0.0634,0.0445,0.0449,0.0553,0.0644,0.0765,0.0847,0.1013,0.0997,0.0868,0.075,0.0745,0.0694,0.0678,0.0668,0.0648,0.0651,0.0864,0.0864,0.0864,0.0492,0.0517,0.0602,0.0684,0.0825,0.0982,0.114,0.1135,0.0936,0.0868,0.0733,0.0659,0.0566,0.0549,0.0512,0.0489,0.0484,0,0]}],[{"header":{"parameterUnit":"m.s-1","parameterCategory":2,"la1":30.2992,"la2":30.254,"lo1":-89.0895,"lo2":-89.0443,"dy":0.0025,"dx":0.0025,"nx":19,"ny":19,"refTime":"2026-03-29T21:00:00:Z","depth":"4","parameterNumber":2,"parameterNumberName":"U-component_of_CURRENTS"},"data":[0,0,0,0.1725,0.1729,0.1918,0.1919,0.2043,0.2044,0,0,0,0,0,0,0,0,0,0,0,0.1661,0.1662,0.1725,0.173,0.1918,0.1919,0.2043,0.2044,0,0,0,0,0,0,0,0,0,0,0,0.166,0.1662,0.1664,0.173,0.1918,0.1919,0.2043,0.1929,0,0,0,0,0,0,0,0,0,0,0.1759,0.1719,0.1661,0.1664,0.1731,0.1918,0.1919,0.1924,0.1936,0.1925,0,0.1967,0,0.2008,0.205,0.205,0,0,0,0.1726,0.171,0.1761,0.1664,0.1733,0.1918,0.1832,0.1932,0.1944,0.194,0.197,0.1975,0.201,0.2051,0.2051,0.2158,0.2159,0,0,0.1715,0.1691,0.1753,0.1769,0.1797,0.1826,0.1838,0.1941,0.1957,0.197,0.1979,0.2012,0.2051,0.2052,0.2158,0.2158,0,0,0,0.1688,0.1684,0.1735,0.1763,0.1808,0.1832,0.1845,0.1953,0.1971,0.1981,0.2014,0.2052,0.2053,0.2157,0.2158,0.2201,0,0,0,0.1681,0.1668,0.173,0.1717,0.1807,0.1899,0.1855,0.1963,0.1977,0.2013,0.2052,0.2054,0.2157,0.2158,0.2198,0.2208,0,0,0,0.1649,0.1665,0.1691,0.1715,0.1799,0.1899,0.1924,0.1968,0.1996,0.2051,0.2054,0.2156,0.2157,0.2196,0.2205,0.2249,0,0,0,0.161,0.1651,0.1691,0.1754,0.1798,0.1903,0.1924,0.2012,0.2062,0.2052,0.2157,0.2158,0.2196,0.2203,0.2246,0.199,0,0,0,0.1631,0.1653,0.1689,0.173,0.1821,0.1875,0.1973,0.205,0.2072,0.2112,0.2116,0.2199,0.2205,0.2248,0.2063,0,0,0,0,0.1675,0.1703,0.1738,0.181,0.1887,0.1969,0.2048,0.2084,0.2164,0.211,0.2212,0.2214,0.224,0.2084,0.2164,0.2164,0.2163,0.2163,0.2163,0.1651,0.1709,0.1773,0.1855,0.1927,0.2041,0.2108,0.2171,0.2189,0.2236,0.2258,0.2332,0.2169,0.2274,0.2274,0.2274,0.2274,0.2275,0.2275,0.1668,0.1699,0.1793,0.1879,0.1973,0.2065,0.2179,0.2222,0.2318,0.2307,0.2331,0.2151,0.2279,0.2278,0.2278,0.2277,0.2277,0.2276,0.2276,0.1628,0.1649,0.1731,0.185,0.1966,0.2087,0.2181,0.2284,0.2353,0.2394,0.2245,0.2367,0.2353,0.2425,0.2425,0.2425,0.2425,0.2425,0.2426,0.1541,0.1619,0.1684,0.1818,0.1894,0.2018,0.2194,0.2253,0.2357,0.2265,0.2421,0.2383,0.2378,0.2362,0.243,0.2429,0.2428,0.2428,0.2428,0.1475,0.1521,0.1594,0.167,0.1817,0.1878,0.2081,0.2144,0.219,0.2166,0.2192,0.2202,0.2164,0.2165,0.2139,0.2144,0.2141,0.2138,0,0.1409,0.1442,0.1518,0.1584,0.1643,0.1783,0.1788,0.1892,0.1992,0.1928,0.2189,0.2215,0.2221,0.2175,0.2171,0.2138,0,0,0,0.1364,0.1397,0.1415,0.1498,0.1549,0.1624,0.1775,0.1753,0.1977,0.1953,0.2061,0.2081,0.2291,0.2441,0.2408,0.2402,0.2375,0,0]},{"header":{"parameterUnit":"m.s-1","parameterCategory":2,"la1":30.2992,"la2":30.254,"lo1":-89.0895,"lo2":-89.0443,"dy":0.0025,"dx":0.0025,"nx":19,"ny":19,"refTime":"2026-03-29T21:00:00:Z","depth":"4","parameterNumber":3,"parameterNumberName":"V-component_of_CURRENTS"},"data":[0,0,0,0.0082,0.0081,0.0035,0.0035,-0.0032,-0.0033,0,0,0,0,0,0,0,0,0,0,0,0.0099,0.0099,0.0082,0.0081,0.0035,0.0035,-0.0032,-0.0033,0,0,0,0,0,0,0,0,0,0,0,0.0099,0.0099,0.0099,0.0081,0.0035,0.0035,-0.0032,0.0002,0,0,0,0,0,0,0,0,0,0,0.0047,0.0067,0.0099,0.0099,0.0081,0.0035,0.0035,0.0004,0.0,-0.0011,0,-0.0011,0,-0.002,-0.0037,-0.0037,0,0,0,0.0072,0.007,0.006,0.0099,0.0081,0.0036,0.0053,0.0002,-0.0002,-0.0016,-0.0012,-0.0015,-0.0021,-0.0037,-0.0037,-0.0048,-0.0048,0,0,0.0075,0.0086,0.0063,0.0058,0.0078,0.0055,0.0052,-0.0001,-0.0003,-0.0012,-0.0016,-0.0023,-0.0037,-0.0038,-0.0048,-0.0048,0,0,0,0.0088,0.0087,0.0078,0.0061,0.0055,0.0054,0.0051,-0.0001,-0.0003,-0.0017,-0.0023,-0.0038,-0.0039,-0.0049,-0.0048,0.0014,0,0,0,0.0089,0.0096,0.008,0.0085,0.0056,0.0028,0.0052,0.0001,-0.0005,-0.0023,-0.0038,-0.0039,-0.0049,-0.0049,0.0012,0.0058,0,0,0,0.01,0.0097,0.0095,0.0086,0.007,0.0028,0.0023,-0.0001,-0.0009,-0.0037,-0.0039,-0.0049,-0.0049,0.001,0.0054,0.0085,0,0,0,0.0107,0.0118,0.0095,0.0104,0.0071,0.0064,0.0023,0.0006,-0.0014,-0.0038,-0.0049,-0.0048,0.0009,0.0051,0.0082,0.0111,0,0,0,0.0128,0.0121,0.0126,0.0105,0.0117,0.0069,0.0078,0.0031,-0.0006,-0.0035,-0.0036,0.0013,0.0053,0.0084,0.0154,0,0,0,0,0.0137,0.0144,0.0142,0.0142,0.0126,0.0125,0.0075,0.0056,0.0029,-0.0013,0.001,0.0034,0.0051,0.006,-0.0045,-0.0045,-0.0045,-0.0045,-0.0045,0.0177,0.0172,0.0192,0.0187,0.0184,0.0158,0.0152,0.0118,0.0067,0.0068,0.0083,0.0148,0.0159,0.0068,0.0069,0.0069,0.0069,0.0069,0.007,0.0218,0.0233,0.0235,0.0252,0.0251,0.0254,0.0226,0.0196,0.019,0.014,0.0153,0.0123,0.0076,0.0075,0.0074,0.0073,0.0072,0.0072,0.0072,0.0245,0.0255,0.0265,0.03,0.033,0.0317,0.0367,0.0323,0.026,0.0276,0.027,0.0196,0.0193,0.0274,0.0275,0.0275,0.0275,0.0276,0.0276,0.0267,0.0282,0.0318,0.0352,0.039,0.0436,0.0447,0.0449,0.0385,0.0361,0.0298,0.0217,0.0211,0.0205,0.0281,0.028,0.028,0.0279,0.0279,0.0294,0.0304,0.0363,0.0405,0.0496,0.054,0.0555,0.0547,0.0548,0.0514,0.0396,0.0389,0.0371,0.0361,0.036,0.0485,0.0485,0.0486,0,0.0314,0.0322,0.0406,0.0485,0.0575,0.0603,0.0648,0.0638,0.0552,0.054,0.052,0.0388,0.0381,0.0359,0.0351,0.0349,0,0,0,0.0334,0.0359,0.0422,0.05,0.0605,0.0643,0.066,0.065,0.0565,0.0575,0.0504,0.0499,0.0396,0.0297,0.0253,0.0245,0.0233,0,0]}]]